FW1197 Weather Reports


Display with metric or nautical units.
time (UTC)temp
F
wind
direction
speed
MPH
gust
MPH
rain 1hr
in
rain 24hr
in
rain mn
in
humidity
%
barometer
mb
20260507093605 62 324 4.0 7.0 0.00 0.05 0.04 79 1017.0
20260507092703 62 322 3.0 7.0 0.00 0.05 0.04 78 1017.0
20260507091803 62 311 3.0 8.0 0.00 0.05 0.04 79 1016.9
20260507090925 61 330 4.0 8.0 0.00 0.05 0.04 79 1016.8
20260507090027 62 310 3.0 8.0 0.00 0.05 0.04 78 1016.7
20260507085430 61 298 4.0 8.0 0.00 0.05 0.04 79 1016.8
20260507084504 61 330 3.0 8.0 0.00 0.05 0.04 79 1016.8
20260507083603 60 333 3.0 12.0 0.00 0.05 0.04 80 1016.7
20260507082703 60 336 2.0 7.0 0.00 0.05 0.04 79 1016.8
20260507081805 59 348 3.0 9.0 0.00 0.05 0.04 81 1016.8
20260507080904 60 345 2.0 6.0 0.00 0.05 0.04 78 1016.6
20260507080005 60 25 2.0 5.0 0.00 0.05 0.04 80 1017.0
20260507075403 61 356 2.0 4.0 0.00 0.05 0.04 79 1017.0
20260507074503 61 75 1.0 4.0 0.00 0.05 0.04 79 1016.8
20260507073603 61 339 1.0 3.0 0.00 0.05 0.04 79 1017.0
20260507072703 60 111 2.0 5.0 0.00 0.05 0.04 78 1017.0
20260507071803 60 163 2.0 5.0 0.00 0.05 0.04 78 1016.9
20260507070903 58 253 1.0 3.0 0.00 0.05 0.04 82 1017.4
20260507070009 58 241 1.0 4.0 0.00 0.05 0.04 84 1017.4
20260507065403 58 189 1.0 3.0 0.00 0.05 0.04 82 1017.1
20260507064503 58 129 2.0 5.0 0.00 0.05 0.04 83 1016.9
20260507063625 58 134 3.0 5.0 0.00 0.05 0.04 82 1016.8
20260507062703 59 121 3.0 6.0 0.00 0.06 0.04 82 1016.8
20260507061803 58 115 3.0 5.0 0.00 0.06 0.04 82 1016.6
20260507060903 58 111 2.0 5.0 0.00 0.06 0.04 84 1016.8
20260507060003 57 125 3.0 5.0 0.00 0.06 0.04 85 1016.4
20260507055403 57 125 3.0 6.0 0.00 0.06 0.04 85 1016.6
20260507054506 56 111 3.0 6.0 0.00 0.06 0.04 87 1016.6
20260507053604 55 102 3.0 6.0 0.00 0.06 0.04 89 1016.7
20260507052729 55 97 4.0 7.0 0.00 0.06 0.04 89 1016.5
20260507051805 54 97 5.0 8.0 0.00 0.06 0.04 90 1016.4
20260507050907 54 95 5.0 6.0 0.00 0.07 0.04 91 1016.6
20260507050006 54 103 4.0 9.0 0.00 0.07 0.04 92 1016.4
20260507045404 54 109 5.0 9.0 0.00 0.07 0.04 93 1016.5
20260507044505 54 116 5.0 9.0 0.00 0.07 0.04 93 1016.4
20260507043605 54 113 5.0 9.0 0.01 0.08 0.04 94 1016.2
20260507042704 53 117 6.0 8.0 0.01 0.08 0.04 94 1016.2
20260507041805 53 115 5.0 11.0 0.01 0.08 0.04 94 1016.3
20260507040911 54 121 5.0 10.0 0.01 0.08 0.04 94 1016.2
20260507040004 54 116 5.0 9.0 0.02 0.08 0.04 94 1016.2
20260507035404 54 119 4.0 7.0 0.02 0.08 0.04 94 1016.4
20260507034505 54 120 4.0 8.0 0.02 0.08 0.04 93 1016.2
20260507033604 54 118 5.0 9.0 0.02 0.07 0.04 93 1016.3
20260507032704 54 103 6.0 11.0 0.02 0.07 0.04 93 1016.0
20260507031806 54 109 5.0 9.0 0.02 0.07 0.04 93 1016.0
20260507030906 54 115 6.0 10.0 0.02 0.07 0.03 92 1016.1
20260507030005 54 98 7.0 10.0 0.01 0.07 0.03 92 1015.9
20260507025426 54 100 6.0 10.0 0.01 0.06 0.02 91 1016.2
20260507024525 53 107 5.0 9.0 0.00 0.06 0.02 91 1016.2
20260507023607 54 113 5.0 10.0 0.01 0.06 0.02 90 1016.3
20260507022704 54 137 4.0 10.0 0.01 0.06 0.02 90 1016.2
20260507021805 54 128 3.0 5.0 0.01 0.06 0.02 90 1016.1
20260507020905 54 115 4.0 9.0 0.01 0.06 0.02 89 1016.2
20260507020004 54 112 5.0 9.0 0.01 0.06 0.02 88 1016.2
20260507015405 54 106 5.0 11.0 0.01 0.05 0.01 88 1015.9
20260507014525 55 99 6.0 11.0 0.01 0.05 0.01 86 1016.0
20260507013607 55 110 5.0 9.0 0.00 0.05 0.01 85 1015.9
20260507012704 55 109 4.0 10.0 0.00 0.05 0.01 84 1016.0
20260507011825 55 100 3.0 9.0 0.00 0.05 0.01 87 1015.9
20260507010904 55 97 5.0 10.0 0.00 0.05 0.01 87 1015.9
20260507010008 54 90 5.0 10.0 0.00 0.04 0.00 89 1016.1
20260507005425 54 91 5.0 10.0 0.00 0.04 0.00 90 1016.2
20260507004505 54 115 5.0 12.0 0.00 0.04 0.00 92 1016.1
20260507003605 54 105 5.0 12.0 0.00 0.04 0.00 93 1016.2
20260507002704 54 106 5.0 11.0 0.00 0.04 0.00 94 1016.3
20260507001804 53 92 5.0 9.0 0.00 0.04 0.00 94 1016.1
20260507000904 53 110 6.0 12.0 0.00 0.04 0.00 94 1016.1
20260507000004 53 116 6.0 12.0 0.00 0.04 0.00 94 1016.2
20260506235404 53 120 6.0 14.0 0.00 0.04 0.00 93 1016.3
20260506234505 53 130 10.0 19.0 0.00 0.04 0.00 92 1016.4
20260506233604 54 132 11.0 19.0 0.00 0.04 0.00 90 1016.5
20260506232704 54 129 11.0 18.0 0.00 0.04 0.00 90 1016.5
20260506231805 54 132 10.0 21.0 0.00 0.04 0.00 89 1016.5
20260506230926 54 131 11.0 22.0 0.00 0.04 0.00 88 1016.4
20260506230020 55 131 10.0 21.0 0.00 0.04 0.00 85 1016.6
20260506225404 55 134 10.0 20.0 0.00 0.04 0.00 84 1016.4
20260506224504 55 136 12.0 19.0 0.00 0.04 0.00 83 1016.5
20260506223604 56 139 11.0 17.0 0.00 0.04 0.00 82 1016.4
20260506222705 56 134 11.0 17.0 0.00 0.04 0.00 81 1016.3
20260506221804 56 130 11.0 17.0 0.00 0.04 0.00 81 1016.5
20260506220904 56 131 11.0 18.0 0.00 0.04 0.00 82 1016.5
20260506220005 56 132 12.0 17.0 0.00 0.04 0.00 82 1016.5
20260506215411 56 135 13.0 21.0 0.00 0.04 0.04 80 1016.5
20260506214525 57 133 9.0 15.0 0.00 0.04 0.04 76 1016.7
20260506213604 58 126 8.0 16.0 0.00 0.04 0.04 74 1016.8
20260506212725 58 126 9.0 16.0 0.00 0.04 0.04 74 1016.6
20260506211807 57 120 9.0 16.0 0.00 0.04 0.04 79 1016.4
20260506210926 57 118 10.0 16.0 0.00 0.04 0.04 80 1016.5
20260506210025 57 121 11.0 17.0 0.00 0.04 0.04 81 1016.5
20260506205405 57 121 12.0 17.0 0.01 0.04 0.04 82 1016.6
20260506204504 57 120 10.0 16.0 0.01 0.04 0.04 84 1016.6
20260506203604 57 128 9.0 16.0 0.01 0.04 0.04 85 1016.5
20260506202704 57 131 10.0 16.0 0.01 0.04 0.04 84 1016.8
20260506201826 57 128 10.0 17.0 0.01 0.04 0.04 83 1016.9
20260506200905 57 135 9.0 15.0 0.01 0.04 0.04 83 1016.9
20260506200004 57 134 8.0 17.0 0.00 0.04 0.04 82 1016.9
20260506195405 57 135 9.0 17.0 0.00 0.03 0.03 82 1016.8
20260506194504 57 132 9.0 15.0 0.00 0.03 0.03 83 1016.9
20260506193604 57 133 10.0 16.0 0.00 0.03 0.03 83 1016.9
20260506192704 57 134 9.0 15.0 0.00 0.03 0.03 84 1016.8
20260506191805 57 131 8.0 15.0 0.00 0.03 0.03 84 1016.6
20260506190907 57 139 9.0 15.0 0.00 0.03 0.03 84 1016.7
20260506190004 57 132 9.0 14.0 0.00 0.03 0.03 83 1016.5
20260506185404 57 132 8.0 15.0 0.00 0.03 0.03 84 1016.7
20260506184504 58 133 8.0 15.0 0.00 0.03 0.03 85 1016.3
20260506183607 58 131 8.0 13.0 0.00 0.03 0.03 84 1016.5
20260506182704 58 132 6.0 9.0 0.00 0.03 0.03 85 1016.4
20260506181804 58 127 6.0 10.0 0.00 0.03 0.03 85 1016.3
20260506180904 58 146 5.0 11.0 0.00 0.03 0.03 84 1016.4
20260506180005 58 146 6.0 11.0 0.00 0.03 0.03 84 1016.4
20260506175404 58 144 6.0 10.0 0.00 0.03 0.03 84 1016.3
20260506174504 58 146 7.0 13.0 0.00 0.03 0.03 83 1016.3
20260506173604 58 159 7.0 13.0 0.00 0.03 0.03 81 1016.2
20260506172704 58 147 8.0 13.0 0.00 0.03 0.03 81 1016.3
20260506171806 58 159 10.0 17.0 0.00 0.03 0.03 81 1016.1
20260506170904 58 165 7.0 15.0 0.00 0.03 0.03 81 1016.3
20260506170004 59 166 7.0 12.0 0.00 0.03 0.03 81 1016.2
20260506165405 59 163 8.0 16.0 0.00 0.03 0.03 80 1016.4
20260506164506 59 164 7.0 15.0 0.00 0.03 0.03 81 1016.4
20260506163604 59 157 7.0 16.0 0.00 0.03 0.03 82 1016.5
20260506162704 59 153 10.0 17.0 0.00 0.03 0.03 81 1016.3
20260506161803 59 152 9.0 18.0 0.00 0.03 0.03 79 1016.2
20260506160904 59 157 11.0 17.0 0.00 0.03 0.03 76 1016.4
20260506160007 60 159 9.0 16.0 0.00 0.03 0.03 77 1016.4
20260506155446 60 155 8.0 15.0 0.00 0.03 0.03 78 1016.4
20260506154504 60 162 9.0 14.0 0.00 0.03 0.03 77 1016.5
20260506153603 60 163 8.0 13.0 0.00 0.03 0.03 76 1016.6
20260506152703 61 170 7.0 15.0 0.00 0.03 0.03 76 1016.2
20260506151803 61 156 9.0 17.0 0.00 0.03 0.03 75 1016.4
20260506150904 60 158 8.0 17.0 0.00 0.03 0.03 76 1016.3
20260506150024 60 155 8.0 15.0 0.00 0.03 0.03 78 1016.2
20260506145403 60 148 9.0 15.0 0.00 0.03 0.03 78 1016.5
20260506144504 60 157 9.0 15.0 0.00 0.03 0.03 74 1016.4
20260506143603 60 161 8.0 17.0 0.00 0.03 0.03 75 1016.6
20260506142746 60 177 8.0 16.0 0.00 0.03 0.03 78 1016.7
20260506141804 60 170 9.0 16.0 0.00 0.03 0.03 78 1016.6
20260506140903 61 176 8.0 15.0 0.00 0.03 0.03 72 1016.6
20260506140024 61 163 9.0 19.0 0.00 0.03 0.03 71 1016.5
20260506135404 61 162 10.0 19.0 0.00 0.03 0.03 72 1016.7
20260506134505 61 162 11.0 17.0 0.00 0.03 0.03 69 1016.7
20260506133603 61 167 10.0 18.0 0.00 0.03 0.03 69 1016.6
20260506132705 62 169 7.0 18.0 0.00 0.03 0.03 68 1016.5
20260506131829 62 190 6.0 15.0 0.00 0.03 0.03 66 1016.9
20260506130903 62 180 8.0 15.0 0.00 0.03 0.03 67 1016.7
20260506130005 63 175 7.0 13.0 0.00 0.03 0.03 66 1016.7
20260506125406 63 167 8.0 15.0 0.00 0.03 0.03 67 1016.8
20260506124503 63 176 8.0 15.0 0.00 0.03 0.03 66 1016.8
20260506123625 62 170 9.0 17.0 0.00 0.03 0.03 66 1016.6
20260506122706 63 172 7.0 16.0 0.00 0.03 0.03 67 1016.8
20260506121803 64 161 9.0 20.0 0.00 0.03 0.03 66 1016.9
20260506120911 63 166 10.0 19.0 0.00 0.03 0.03 66 1016.7
20260506120006 63 173 9.0 20.0 0.00 0.03 0.03 65 1016.6
20260506115404 64 175 9.0 20.0 0.00 0.03 0.03 65 1016.6
20260506114524 63 172 9.0 19.0 0.00 0.03 0.03 63 1016.6
20260506113604 63 154 12.0 19.0 0.00 0.03 0.03 65 1016.8
20260506112704 64 171 9.0 22.0 0.00 0.03 0.03 63 1016.8
20260506111804 63 158 10.0 22.0 0.00 0.03 0.03 64 1016.8
20260506110924 63 160 11.0 21.0 0.00 0.03 0.03 63 1016.8
20260506110003 63 148 13.0 21.0 0.00 0.03 0.03 63 1016.6
20260506105403 64 151 11.0 21.0 0.00 0.03 0.03 62 1016.6
20260506104504 64 152 12.0 21.0 0.00 0.03 0.03 61 1016.6
20260506103603 64 157 11.0 21.0 0.00 0.03 0.03 61 1016.8
20260506102703 62 154 14.0 22.0 0.00 0.03 0.03 72 1016.8
20260506101803 62 140 13.0 22.0 0.00 0.03 0.03 68 1016.6
20260506100906 62 144 15.0 26.0 0.00 0.03 0.03 63 1016.7
20260506100006 62 146 11.0 26.0 0.00 0.03 0.03 70 1016.8
20260506095404 61 148 12.0 21.0 0.00 0.03 0.03 72 1016.9
20260506094510 60 152 13.0 21.0 0.00 0.03 0.03 70 1016.7